[[{"header":{"parameterUnit":"m.s-1","parameterCategory":1,"la1":30.2992,"la2":30.254,"lo1":-89.0895,"lo2":-89.0443,"dy":0.0025,"dx":0.0025,"nx":19,"ny":19,"refTime":"2026-03-14T03:00:00:Z","depth":0,"parameterNumber":2,"parameterNumberName":"U-component_of_WINDS"},"data":[0,0,0,-0.0493,-0.0496,-0.0649,-0.065,-0.0825,-0.0827,0,0,0,0,0,0,0,0,0,0,0,-0.0434,-0.0435,-0.0493,-0.0496,-0.0649,-0.065,-0.0825,-0.0827,0,0,0,0,0,0,0,0,0,0,0,-0.0434,-0.0435,-0.0435,-0.0497,-0.0649,-0.065,-0.0825,-0.0717,0,0,0,0,0,0,0,0,0,0,-0.0572,-0.0504,-0.0434,-0.0435,-0.0497,-0.0649,-0.065,-0.0712,-0.0723,-0.0747,0,-0.0763,0,-0.0797,-0.0837,-0.0838,0,0,0,-0.0507,-0.0494,-0.0547,-0.0436,-0.0499,-0.0648,-0.0583,-0.0719,-0.0732,-0.0762,-0.0766,-0.0773,-0.08,-0.0838,-0.0839,-0.0936,-0.0936,0,0,-0.0498,-0.0455,-0.0538,-0.0555,-0.0529,-0.0578,-0.0588,-0.0727,-0.0728,-0.0766,-0.0777,-0.0803,-0.0839,-0.084,-0.0936,-0.0936,0,0,0,-0.0467,-0.0448,-0.0499,-0.0547,-0.0576,-0.0582,-0.0593,-0.0722,-0.0742,-0.0779,-0.0805,-0.084,-0.0842,-0.0936,-0.0936,-0.0892,0,0,0,-0.0462,-0.043,-0.0494,-0.0469,-0.0573,-0.0651,-0.0585,-0.0733,-0.075,-0.0804,-0.084,-0.0843,-0.0936,-0.0936,-0.0893,-0.0878,0,0,0,-0.0429,-0.0426,-0.0444,-0.0467,-0.0531,-0.065,-0.0678,-0.0737,-0.0765,-0.0838,-0.0844,-0.0936,-0.0936,-0.0894,-0.088,-0.0891,0,0,0,-0.0381,-0.0402,-0.0442,-0.0476,-0.0529,-0.062,-0.0678,-0.0748,-0.0805,-0.0841,-0.0936,-0.0936,-0.0895,-0.0882,-0.0892,-0.0892,-0.0888,0,0,-0.0383,-0.0401,-0.0425,-0.0465,-0.0538,-0.0601,-0.0668,-0.0762,-0.0809,-0.0891,-0.0895,-0.0893,-0.088,-0.0891,-0.088,-0.0876,0,0,0,-0.0411,-0.0427,-0.0456,-0.0508,-0.0579,-0.064,-0.0728,-0.0764,-0.0835,-0.0842,-0.0901,-0.0895,-0.0903,-0.0905,-0.0902,-0.0912,-0.0935,-0.0935,-0.0935,-0.0352,-0.0411,-0.0455,-0.0532,-0.0581,-0.0672,-0.0718,-0.0781,-0.0827,-0.084,-0.0864,-0.085,-0.0851,-0.0849,-0.0859,-0.0869,-0.0869,-0.0869,-0.0869,-0.0362,-0.0395,-0.0454,-0.0518,-0.058,-0.0635,-0.0724,-0.0754,-0.0815,-0.0836,-0.0847,-0.0865,-0.0843,-0.0855,-0.0866,-0.0867,-0.0867,-0.0867,-0.0867,-0.033,-0.0356,-0.0398,-0.0479,-0.0535,-0.0614,-0.0669,-0.0725,-0.0777,-0.0787,-0.082,-0.0821,-0.0829,-0.0799,-0.0799,-0.0799,-0.0799,-0.0799,-0.0799,-0.028,-0.0329,-0.0368,-0.0446,-0.0487,-0.0548,-0.064,-0.0682,-0.0744,-0.078,-0.078,-0.0824,-0.083,-0.083,-0.0798,-0.0798,-0.0798,-0.0798,-0.0798,-0.0268,-0.028,-0.034,-0.0381,-0.0478,-0.053,-0.0601,-0.0682,-0.0725,-0.0751,-0.0793,-0.0788,-0.081,-0.0813,-0.0813,-0.078,-0.078,-0.078,-0.078,-0.0241,-0.0258,-0.0332,-0.0394,-0.0461,-0.0531,-0.0598,-0.067,-0.0747,-0.0778,-0.0791,-0.0796,-0.0797,-0.0819,-0.0822,-0.0823,-0.0793,-0.0793,-0.0793,-0.0238,-0.0263,-0.0309,-0.0383,-0.0464,-0.0531,-0.0597,-0.0667,-0.0756,-0.0794,-0.0803,-0.0803,-0.0812,-0.0812,-0.085,-0.0853,-0.0856,0,0]},{"header":{"parameterUnit":"m.s-1","parameterCategory":1,"la1":30.2992,"la2":30.254,"lo1":-89.0895,"lo2":-89.0443,"dy":0.0025,"dx":0.0025,"nx":19,"ny":19,"refTime":"2026-03-14T03:00:00:Z","depth":0,"parameterNumber":3,"parameterNumberName":"V-component_of_WINDS"},"data":[0,0,0,8.1745,8.1754,8.2202,8.2204,8.2743,8.2748,0,0,0,0,0,0,0,0,0,0,0,8.1589,8.1592,8.1745,8.1755,8.2202,8.2204,8.2743,8.2748,0,0,0,0,0,0,0,0,0,0,0,8.1588,8.1591,8.1595,8.1757,8.2202,8.2204,8.2741,8.2416,0,0,0,0,0,0,0,0,0,0,8.1988,8.182,8.1591,8.1595,8.1759,8.2201,8.2205,8.2401,8.2437,8.2525,0,8.2595,0,8.268,8.2782,8.2783,0,0,0,8.1774,8.179,8.1932,8.1595,8.1763,8.22,8.2006,8.2422,8.2461,8.2572,8.2603,8.2624,8.2689,8.2785,8.2787,8.3233,8.3234,0,0,8.1749,8.1658,8.1904,8.1956,8.1882,8.1991,8.2019,8.2446,8.2475,8.2605,8.2637,8.2697,8.2788,8.2792,8.3232,8.3233,0,0,0,8.1665,8.1639,8.1772,8.1933,8.2016,8.2004,8.2036,8.2456,8.2507,8.2644,8.2704,8.2791,8.2797,8.3231,8.3232,8.3204,0,0,0,8.1651,8.1591,8.176,8.1709,8.2007,8.2241,8.2035,8.2477,8.2528,8.2701,8.2791,8.2802,8.3229,8.3232,8.3202,8.3206,0,0,0,8.1568,8.1582,8.1638,8.1703,8.1892,8.2236,8.2312,8.249,8.2564,8.2784,8.2803,8.3229,8.3231,8.32,8.3203,8.3298,0,0,0,8.1454,8.1606,8.1636,8.183,8.1887,8.2214,8.231,8.2559,8.2744,8.2794,8.323,8.3232,8.32,8.3202,8.3295,8.3361,8.3379,0,0,8.1595,8.1619,8.1742,8.1782,8.2079,8.2153,8.245,8.2706,8.2812,8.3087,8.31,8.3203,8.3203,8.3297,8.3513,8.3527,0,0,0,8.1756,8.1842,8.1941,8.2112,8.231,8.2483,8.2703,8.2799,8.3038,8.2933,8.3265,8.3268,8.3327,8.3363,8.3375,8.3433,8.3244,8.3244,8.3244,8.1824,8.1951,8.2162,8.2343,8.2508,8.2736,8.2883,8.3052,8.3131,8.3207,8.3289,8.3405,8.3443,8.3453,8.3511,8.3334,8.3334,8.3334,8.3334,8.2044,8.2187,8.2291,8.2532,8.2667,8.2873,8.31,8.315,8.3364,8.3352,8.3411,8.3387,8.3464,8.3522,8.3333,8.3334,8.3334,8.3334,8.3334,8.2103,8.2194,8.2308,8.257,8.276,8.294,8.3141,8.3257,8.3368,8.3425,8.3527,8.3528,8.3544,8.3466,8.3466,8.3466,8.3467,8.3467,8.3467,8.2119,8.2249,8.2402,8.2629,8.2756,8.2938,8.3171,8.3301,8.3475,8.3544,8.3545,8.3618,8.3447,8.3402,8.3474,8.3473,8.3472,8.3471,8.3471,8.2296,8.2275,8.2511,8.2638,8.2917,8.3099,8.3245,8.35,8.3624,8.3721,8.3784,8.3637,8.3671,8.3663,8.3627,8.3754,8.3754,8.3754,8.3754,8.2346,8.2374,8.2645,8.2841,8.3047,8.3204,8.3473,8.3658,8.3846,8.3933,8.3932,8.3893,8.3879,8.3922,8.3908,8.3876,8.4064,8.4064,8.4064,8.2462,8.2517,8.272,8.2902,8.313,8.3323,8.3581,8.3806,8.4016,8.4079,8.4003,8.399,8.393,8.3903,8.3962,8.3938,8.3881,0,0]}]]